This demonstration page uses our WeatherBlox Daily Observations layout. Learn more.

Left ArrowRight Arrow

Hourly Observations for October 12, 2021

Temp ( °F °C ) Dew Point ( °F °C ) Humidity (%) Winds ( mph kmh ) Pressure ( in mb ) Visibility ( mi km ) Precip ( " mm )
12:56 am 00:56 Clear 46 7.8 38 3.3 73 73 NE 5 7 29.88 1012 10 16 N/A
1:56 am 01:56 Clear 45 7.2 37 2.8 74 74 NE 5 7 29.89 1012 10 16 N/A
2:56 am 02:56 Clear 43 6.1 37 2.8 80 80 ENE 6 9 29.90 1013 10 16 N/A
3:56 am 03:56 Clear 44 6.7 37 2.8 76 76 E 7 11 29.89 1012 10 16 N/A
4:56 am 04:56 Clear 43 6.1 37 2.8 80 80 ENE 5 7 29.90 1012 10 16 N/A
5:56 am 05:56 Clear 43 6.1 37 2.8 80 80 ENE 5 7 29.90 1013 10 16 N/A
6:56 am 06:56 Clear 42 5.6 37 2.8 82 82 ENE 5 7 29.91 1013 10 16 N/A
7:56 am 07:56 Sunny 42 5.6 37 2.8 82 82 E 7 11 29.93 1014 10 16 N/A
8:56 am 08:56 Sunny 48 8.9 41 5 77 77 E 8 13 29.93 1014 10 16 N/A
9:56 am 09:56 Sunny 59 15 45 7.2 60 60 ESE 12 19 29.92 1013 10 16 N/A
10:56 am 10:56 Sunny 66 18.9 46 7.8 49 49 SE 17 28 29.89 1012 10 16 N/A
11:56 am 11:56 Sunny 71 21.7 44 6.7 38 38 SSE 23 37 29.85 1011 10 16 N/A
12:56 pm 12:56 Sunny 72 22.2 42 5.6 34 34 SSE 29 46 29.83 1010 10 16 N/A
1:56 pm 13:56 Partly Cloudy 71 21.7 41 5 34 34 SSE 24 39 29.81 1009 10 16 N/A
2:56 pm 14:56 Cloudy 72 22.2 41 5 33 33 SSE 28 44 29.76 1008 10 16 N/A
3:56 pm 15:56 Mostly Cloudy 71 21.7 44 6.7 38 38 SSE 31 50 29.73 1007 10 16 N/A
4:56 pm 16:56 Mostly Cloudy with Light Rain 70 21.1 44 6.7 39 39 SSE 26 43 29.72 1007 9 14 0.00 0.00
5:56 pm 17:56 Cloudy 69 20.6 44 6.7 41 41 SE 23 37 29.70 1006 10 16 0.00 0.00
6:56 pm 18:56 Cloudy 67 19.4 44 6.7 44 44 SSE 22 35 29.72 1006 10 16 N/A
7:56 pm 19:56 Cloudy 65 18.3 47 8.3 52 52 SSE 21 33 29.72 1007 10 16 N/A
8:56 pm 20:56 Cloudy 62 16.7 47 8.3 58 58 SE 22 35 29.67 1005 10 16 0.00 0.00
9:56 pm 21:56 Cloudy 62 16.7 47 8.3 58 58 SE 24 39 29.62 1003 10 16 N/A
10:56 pm 22:56 Cloudy 62 16.7 48 8.9 60 60 SE 20 31 29.58 1002 10 16 N/A
11:24 pm 23:24 Cloudy 63 17 48 9 59 59 ESE 23 37 29.53 1000 10 16 N/A
11:44 pm 23:44 Cloudy with Nearby Thunderstorms 63 17 48 9 59 59 SE 20 31 29.55 1001 10 16 N/A
11:56 pm 23:56 Cloudy with Nearby Thunderstorms 61 16.1 50 10 67 67 SSW 17 28 29.62 1003 10 16 0.00 0.00

Powered by AerisWeather